This is the latest recevied weather packets stored in our database for station/object KB2SKP. If no packets are shown the sender has not sent any weather packets the latest 10 day(s).
| Time | Temp. | Humidity | Pressure | Rain* | Wind** | Luminosity | Snow |
|---|---|---|---|---|---|---|---|
| 1778014570 | 27.78° C | 34% | 1006.9 hPa | 0 mm | - | 148 W/m² | - |
| 1778014268 | 27.78° C | 33% | 1006.8 hPa | 0 mm | - | 241 W/m² | - |
| 1778013965 | 27.78° C | 32% | 1006.9 hPa | 0 mm | - | 230 W/m² | - |
| 1778013662 | 27.78° C | 31% | 1006.8 hPa | 0 mm | - | 303 W/m² | - |
| 1778013358 | 27.78° C | 31% | 1006.8 hPa | 0 mm | - | 222 W/m² | - |
| 1778013056 | 28.89° C | 32% | 1006.9 hPa | 0 mm | - | 70 W/m² | - |
| 1778012751 | 28.33° C | 33% | 1006.9 hPa | 0 mm | - | 47 W/m² | - |
| 1778012448 | 28.89° C | 33% | 1006.9 hPa | 0 mm | - | 46 W/m² | - |
| 1778012144 | 28.89° C | 34% | 1007 hPa | 0 mm | - | 47 W/m² | - |
| 1778011842 | 28.89° C | 34% | 1007.2 hPa | 0 mm | - | 49 W/m² | - |
| 1778011540 | 28.33° C | 33% | 1007.4 hPa | 0 mm | - | 51 W/m² | - |
| 1778011237 | 28.33° C | 33% | 1007.4 hPa | 0 mm | - | 53 W/m² | - |
| 1778010933 | 28.33° C | 34% | 1007.4 hPa | 0 mm | - | 55 W/m² | - |
| 1778010630 | 28.89° C | 34% | 1007.5 hPa | 0 mm | - | 50 W/m² | - |
| 1778010327 | 28.33° C | 34% | 1007.4 hPa | 0 mm | - | 55 W/m² | - |
| 1778010023 | 28.33° C | 35% | 1007.6 hPa | 0 mm | - | 14 W/m² | - |
| 1778009720 | 28.89° C | 36% | 1007.9 hPa | 0 mm | - | 50 W/m² | - |
| 1778009417 | 28.33° C | 35% | 1008 hPa | 0 mm | - | 54 W/m² | - |
| 1778009116 | 27.78° C | 33% | 1007.9 hPa | 0 mm | - | 264 W/m² | - |
| 1778008813 | 28.33° C | 35% | 1008 hPa | 0 mm | - | 76 W/m² | - |
| 1778008511 | 28.33° C | 35% | 1008 hPa | 0 mm | - | 46 W/m² | - |
| 1778008209 | 28.89° C | 36% | 1008.1 hPa | 0 mm | - | 45 W/m² | - |
| 1778007909 | 28.33° C | 36% | 1008.2 hPa | 0 mm | - | 45 W/m² | - |
| 1778007604 | 27.78° C | 36% | 1008.3 hPa | 0 mm | - | 44 W/m² | - |
| 1778007296 | 27.78° C | 37% | 1008.2 hPa | 0 mm | - | 44 W/m² | - |
* Rain latest hour (hover to see other rain measurements)
** Current wind speed in m/s (hover to see current wind gust speed)